This demonstration page uses our WeatherBlox Daily Observations layout. Learn more.

Left ArrowRight Arrow

41.86663, -103.66717

Hourly Observations for August 12, 2022

Temp ( °F °C ) Dew Point ( °F °C ) Humidity (%) Winds ( mph kmh ) Pressure ( in mb ) Visibility ( mi km ) Precip ( " mm )
12:53 am 00:53 Clear 80 26.7 49 9.4 34 34 SSE 16 26 29.93 1014 10 16 0.00 0.00
1:53 am 01:53 Clear 72 22.2 51 10.6 48 48 ESE 8 13 29.96 1014 10 16 0.00 0.00
2:53 am 02:53 Clear 67 19.4 52 11.1 59 59 E 6 9 29.99 1016 10 16 0.00 0.00
3:53 am 03:53 Clear 67 19.4 52 11.1 59 59 VRB 5 7 29.99 1016 10 16 0.00 0.00
4:53 am 04:53 Clear 67 19.4 51 10.6 57 57 ENE 7 11 29.98 1015 10 16 0.00 0.00
5:53 am 05:53 Clear 66 18.9 51 10.6 59 59 NNE 7 11 30.01 1016 10 16 0.00 0.00
6:53 am 06:53 Sunny 68 20 53 11.7 59 59 Calm 30.01 1016 10 16 0.00 0.00
7:53 am 07:53 Sunny 74 23.3 53 11.7 48 48 Calm 30.01 1016 10 16 0.00 0.00
8:53 am 08:53 Sunny 80 26.7 54 12.2 41 41 NW 8 13 30.00 1016 10 16 0.00 0.00
9:53 am 09:53 Sunny 83 28.3 56 13.3 40 40 W 12 19 30.01 1016 10 16 0.00 0.00
10:53 am 10:53 Sunny 85 29.4 58 14.4 40 40 W 8 13 30.00 1016 10 16 0.00 0.00
11:53 am 11:53 Sunny 91 32.8 58 14.4 33 33 WSW 9 15 29.97 1015 10 16 0.00 0.00
12:53 pm 12:53 Sunny 95 35 57 13.9 28 28 NNW 9 15 29.95 1014 10 16 0.00 0.00
1:53 pm 13:53 Sunny 94 34.4 57 13.9 29 29 S 8 13 29.95 1014 10 16 0.00 0.00
2:53 pm 14:53 Sunny 95 35 58 14.4 29 29 ESE 9 15 29.95 1014 10 16 0.00 0.00
3:53 pm 15:53 Sunny 96 35.6 57 13.9 27 27 E 7 11 29.93 1013 10 16 0.00 0.00
4:53 pm 16:53 Sunny 97 36.1 56 13.3 26 26 SE 9 15 29.91 1013 10 16 0.00 0.00
5:53 pm 17:53 Sunny 95 35 57 13.9 28 28 ESE 9 15 29.90 1012 10 16 0.00 0.00
6:53 pm 18:53 Sunny 92 33.3 62 16.7 37 37 E 6 9 29.90 1012 10 16 0.00 0.00
7:53 pm 19:53 Sunny 84 28.9 62 16.7 48 48 E 8 13 29.90 1013 10 16 0.00 0.00
8:53 pm 20:53 Clear 80 26.7 58 14.4 47 47 ENE 8 13 29.92 1013 10 16 0.00 0.00
9:53 pm 21:53 Clear 82 27.8 55 12.8 40 40 ENE 14 22 29.93 1014 10 16 0.00 0.00
10:53 pm 22:53 Partly Cloudy 81 27.2 55 12.8 41 41 ENE 15 24 29.93 1014 10 16 0.00 0.00
11:53 pm 23:53 Cloudy with Nearby Thunderstorms 78 25.6 58 14.4 50 50 N 12 19 29.97 1015 10 16 0.01 0.13

Powered by AerisWeather